Regional Weather Roundup
Issued by NWS State College, PA

Home | Current Version | Previous Version | Text Only | Print | Product List | Glossary Off
Versions: 1 2 3 4 5 6 7 8 9 10 11 12 13 14 15 16 17 18 19 20 21 22 23 24 25 26 27 28 29 30 31 32 33 34 35 36 37 38 39 40 41 42 43 44 45 46 47 48 49 50

000
ASUS41 KCTP 021403
RWRCTP

REGIONAL WEATHER ROUNDUP
NATIONAL WEATHER SERVICE STATE COLLEGE PA
1000 AM EDT TUE SEP 02 2014

Note: "fair" indicates few or no clouds below 12,000 feet with no
significant weather and/or obstructions to visibility.

* = STATION THAT DOES NOT REPORT PRECIPITATION /E.G. RAIN...SNOW...ETC/
    THUNDER OR FOG.

PAZ002>004-007>009-013>016-020>023-029>032-021500-
WESTERN PENNSYLVANIA

CITY           SKY/WX    TMP DP  RH WIND       PRES   REMARKS
ERIE           PTSUNNY   77  68  73 SW13      29.91S
MEADVILLE      PTSUNNY   73  66  78 W10       29.96S
FRANKLIN*      MOSUNNY   73  66  78 SW8       29.99F
NEW CASTLE     FAIR      77  70  79 VRB6      29.98F
BEAVER COUNTY  PTSUNNY   75  70  83 SW8       29.99F
BUTLER*        PTSUNNY   75  68  78 SW9       30.01F
PITTSBURGH INT CLOUDY    74  70  87 VRB5      29.99F
PITTSBURGH     CLOUDY    75  68  78 SW8       30.00S
INDIANA*       CLOUDY    75  70  83 W10       30.05S
LATROBE        PTSUNNY   75  73  94 SW9       30.02S
WASHINGTON CO* PTSUNNY   75  70  83 SW3       30.02F
$$

PAZ004>006-010>012-017>019-024>028-033>037-041-042-045-046-049>053-021500-
CENTRAL PENNSYLVANIA

CITY           SKY/WX    TMP DP  RH WIND       PRES   REMARKS
BRADFORD       PTSUNNY   73  66  78 VRB3      29.98S
DUBOIS         PTSUNNY   73  67  81 W14G25    30.00R
CLEARFIELD     PTSUNNY   75  68  78 W10G20    29.99S
JOHNSTOWN      MOSUNNY   72  65  78 W15       30.05S
ALTOONA        MOSUNNY   78  66  66 W12       30.02R
STATE COLLEGE  PTSUNNY   75  70  83 W9        29.99R
WILLIAMSPORT   MOSUNNY   76  70  82 CALM      29.94S
SELINSGROVE    PTSUNNY   79  72  79 VRB3      29.97R
FT INDIANTOWN  SUNNY     79  78  95 SW6       29.97S
CAPITAL CITY   SUNNY     81  70  69 W5        29.96R
HARRISBURG     PTSUNNY   82  72  71 CALM      29.96R
YORK           SUNNY     82  70  66 W7        29.98R
$$

PAZ038>040-043-044-047-048-054-055-060>062-067>071-021500-
EASTERN PENNSYLVANIA

CITY           SKY/WX    TMP DP  RH WIND       PRES   REMARKS
SCRANTON       MOSUNNY   79  69  71 SW9       29.96S
MOUNT POCONO   SUNNY     76  67  73 W13G18    30.01S
ALLENTOWN      SUNNY     82  71  69 W6        29.95S
QUAKERTOWN*    SUNNY     82  72  69 MISG      29.98S
READING        MOSUNNY   82  71  69 W3        29.95S
LANCASTER      SUNNY     81  71  71 W5        29.97S
COATESVILLE    SUNNY     81  73  78 W6        29.99S
POTTSTOWN      SUNNY     81  70  69 VRB3      29.98S
BLUE BELL      SUNNY     84  72  65 W6        29.96S
DOYLESTOWN     SUNNY     83  71  67 W5        29.96S
WILLOW GROVE   NOT AVBL
NORTH PHILA    SUNNY     86  69  56 VRB7      29.97S
PHILADELPHIA   MOSUNNY   84  71  65 SW8       29.96S
$$


USA.gov is the U.S. government's official web portal to all federal, state and local government web resources and services.